This is the latest recevied weather packets stored in our database for station/object DL9OAC-5. If no packets are shown the sender has not sent any weather packets the latest 10 day(s).
| Time | Temp. | Humidity | Pressure | Rain* | Wind** | Luminosity | Snow |
|---|---|---|---|---|---|---|---|
| 1777443769 | 27.22° C | 29% | 1027.9 hPa | - | - | - | - |
| 1777442869 | 27.78° C | 29% | 1027.7 hPa | - | - | - | - |
| 1777442569 | 27.22° C | 29% | 1027.7 hPa | - | - | - | - |
| 1777442269 | 27.78° C | 30% | 1027.7 hPa | - | - | - | - |
| 1777441969 | 27.22° C | 29% | 1027.6 hPa | - | - | - | - |
| 1777441369 | 27.22° C | 29% | 1027.6 hPa | - | - | - | - |
| 1777441069 | 27.22° C | 30% | 1027.7 hPa | - | - | - | - |
| 1777440769 | 27.22° C | 30% | 1027.6 hPa | - | - | - | - |
| 1777440469 | 27.78° C | 30% | 1027.5 hPa | - | - | - | - |
| 1777440169 | 27.22° C | 30% | 1027.5 hPa | - | - | - | - |
| 1777439869 | 27.78° C | 30% | 1027.5 hPa | - | - | - | - |
| 1777439569 | 27.78° C | 30% | 1027.4 hPa | - | - | - | - |
| 1777438669 | 28.33° C | 30% | 1027.3 hPa | - | - | - | - |
| 1777438069 | 27.78° C | 31% | 1027.1 hPa | - | - | - | - |
| 1777437769 | 27.22° C | 31% | 1027.1 hPa | - | - | - | - |
| 1777437469 | 26.67° C | 32% | 1027 hPa | - | - | - | - |
| 1777436869 | 26.11° C | 33% | 1027.1 hPa | - | - | - | - |
| 1777436569 | 25.56° C | 33% | 1027 hPa | - | - | - | - |
| 1777435969 | 25° C | 33% | 1026.9 hPa | - | - | - | - |
| 1777435369 | 25° C | 33% | 1026.9 hPa | - | - | - | - |
| 1777435069 | 25° C | 33% | 1026.7 hPa | - | - | - | - |
| 1777434769 | 25° C | 33% | 1026.7 hPa | - | - | - | - |
| 1777434169 | 25° C | 33% | 1026.7 hPa | - | - | - | - |
| 1777433869 | 25° C | 33% | 1026.6 hPa | - | - | - | - |
| 1777433269 | 25° C | 33% | 1026.5 hPa | - | - | - | - |
* Rain since midnight (hover to see other rain measurements)
** Current wind speed in m/s (hover to see current wind gust speed)